| time (UTC) | temp F | wind direction | speed MPH | gust MPH | rain 1hr in | rain 24hr in | rain mn in | humidity % | barometer mb |
| 20260831031836 | 77 | 157 | 0.0 | 0.0 | 0.00 | 0.00 | 0.00 | 67 | 1015.4 |
| 20260831030340 | 77 | 147 | 0.0 | 0.0 | 0.00 | 0.00 | 0.00 | 68 | 1015.5 |
| 20260831024837 | 77 | 154 | 0.0 | 0.0 | 0.00 | 0.00 | 0.00 | 71 | 1015.4 |
| 20260831023332 | 77 | 171 | 0.0 | 0.0 | 0.00 | 0.00 | 0.00 | 70 | 1015.3 |
| 20260831021827 | 77 | 155 | 0.0 | 0.0 | 0.00 | 0.00 | 0.00 | 68 | 1015.3 |
| 20260831013343 | 78 | 100 | 0.0 | 0.0 | 0.00 | 0.00 | 0.00 | 49 | 1015.3 |
| 20260830221836 | 79 | 49 | 0.0 | 0.0 | 0.00 | 0.00 | 0.00 | 58 | 1016.1 |
| 20260830220519 | 79 | 63 | 0.0 | 0.0 | 0.00 | 0.00 | 0.00 | 60 | 1016.1 |
| 20260830210335 | 80 | 148 | 0.0 | 0.0 | 0.00 | 0.00 | 0.00 | 64 | 1016.2 |
| 20260830204828 | 79 | 144 | 0.0 | 2.0 | 0.00 | 0.00 | 0.00 | 66 | 1016.0 |
| 20260830203330 | 79 | 157 | 1.0 | 2.0 | 0.00 | 0.00 | 0.00 | 67 | 1016.0 |
| 20260830201831 | 79 | 149 | 2.0 | 3.0 | 0.00 | 0.00 | 0.00 | 67 | 1016.0 |
| 20260830194830 | 80 | 155 | 1.0 | 3.0 | 0.00 | 0.00 | 0.00 | 67 | 1015.9 |
| 20260830193329 | 80 | 243 | 0.0 | 0.0 | 0.00 | 0.00 | 0.00 | 66 | 1015.8 |
| 20260830191830 | 81 | 265 | 0.0 | 2.0 | 0.00 | 0.00 | 0.00 | 66 | 1015.9 |
| 20260830190329 | 81 | 207 | 0.0 | 0.0 | 0.00 | 0.00 | 0.00 | 66 | 1015.7 |
| 20260830184829 | 81 | 262 | 0.0 | 3.0 | 0.00 | 0.00 | 0.00 | 66 | 1015.7 |
| 20260830183329 | 82 | 281 | 0.0 | 1.0 | 0.00 | 0.00 | 0.00 | 65 | 1015.5 |
| 20260830180329 | 81 | 323 | 0.0 | 2.0 | 0.00 | 0.00 | 0.00 | 66 | 1015.3 |
| 20260830174829 | 81 | 333 | 0.0 | 3.0 | 0.00 | 0.00 | 0.00 | 65 | 1015.2 |
| 20260830173330 | 82 | 281 | 0.0 | 2.0 | 0.00 | 0.00 | 0.00 | 66 | 1015.0 |
| 20260830170331 | 82 | 259 | 0.0 | 4.0 | 0.00 | 0.00 | 0.00 | 66 | 1014.9 |
| 20260830164830 | 83 | 276 | 1.0 | 6.0 | 0.00 | 0.00 | 0.00 | 65 | 1014.8 |
| 20260830163328 | 85 | 281 | 1.0 | 4.0 | 0.00 | 0.00 | 0.00 | 59 | 1014.9 |
| 20260830161825 | 85 | 300 | 4.0 | 5.0 | 0.00 | 0.00 | 0.00 | 56 | 1014.7 |
| 20260830154823 | 87 | 248 | 2.0 | 6.0 | 0.00 | 0.00 | 0.00 | 49 | 1014.6 |
| 20260830151817 | 88 | 245 | 1.0 | 6.0 | 0.00 | 0.00 | 0.00 | 47 | 1014.4 |
| 20260830144812 | 89 | 275 | 2.0 | 4.0 | 0.00 | 0.00 | 0.00 | 46 | 1014.4 |
| 20260830143310 | 89 | 224 | 2.0 | 7.0 | 0.00 | 0.00 | 0.00 | 45 | 1014.4 |
| 20260830141807 | 90 | 251 | 1.0 | 6.0 | 0.00 | 0.00 | 0.00 | 44 | 1014.4 |
| 20260830140307 | 90 | 338 | 1.0 | 5.0 | 0.00 | 0.00 | 0.00 | 44 | 1014.4 |
| 20260830134802 | 89 | 251 | 0.0 | 6.0 | 0.00 | 0.00 | 0.00 | 43 | 1014.4 |
| 20260830133313 | 89 | 233 | 2.0 | 6.0 | 0.00 | 0.00 | 0.00 | 43 | 1014.4 |
| 20260830131802 | 89 | 275 | 1.0 | 5.0 | 0.00 | 0.00 | 0.00 | 43 | 1014.4 |
| 20260830130307 | 89 | 254 | 2.0 | 6.0 | 0.00 | 0.00 | 0.00 | 43 | 1014.4 |
| 20260830124802 | 90 | 286 | 2.0 | 5.0 | 0.00 | 0.00 | 0.00 | 41 | 1014.4 |
| 20260830123306 | 90 | 221 | 1.0 | 6.0 | 0.00 | 0.00 | 0.00 | 40 | 1014.5 |
| 20260830113303 | 90 | 216 | 2.0 | 6.0 | 0.00 | 0.00 | 0.00 | 38 | 1015.1 |
| 20260830111801 | 90 | 220 | 3.0 | 5.0 | 0.00 | 0.00 | 0.00 | 38 | 1015.3 |
| 20260830110302 | 90 | 235 | 2.0 | 5.0 | 0.00 | 0.00 | 0.00 | 39 | 1015.4 |
| 20260830104803 | 89 | 261 | 3.0 | 6.0 | 0.00 | 0.00 | 0.00 | 40 | 1015.4 |
| 20260830103302 | 89 | 230 | 3.0 | 6.0 | 0.00 | 0.00 | 0.00 | 40 | 1015.5 |
| 20260830101806 | 89 | 269 | 2.0 | 6.0 | 0.00 | 0.00 | 0.00 | 40 | 1015.7 |
| 20260830100303 | 89 | 193 | 1.0 | 7.0 | 0.00 | 0.00 | 0.00 | 40 | 1015.7 |
| 20260830094801 | 89 | 259 | 2.0 | 6.0 | 0.00 | 0.00 | 0.00 | 40 | 1015.7 |
| 20260830093308 | 88 | 250 | 2.0 | 5.0 | 0.00 | 0.00 | 0.00 | 39 | 1015.9 |
| 20260830091800 | 88 | 292 | 2.0 | 5.0 | 0.00 | 0.00 | 0.00 | 40 | 1015.9 |
| 20260830090258 | 87 | 310 | 1.0 | 6.0 | 0.00 | 0.00 | 0.00 | 36 | 1016.0 |
| 20260830081800 | 86 | 0 | 2.0 | 4.0 | 0.00 | 0.00 | 0.00 | 39 | 1016.2 |
| 20260830080257 | 85 | 310 | 3.0 | 6.0 | 0.00 | 0.00 | 0.00 | 39 | 1016.3 |
| 20260830074753 | 84 | 258 | 0.0 | 3.0 | 0.00 | 0.00 | 0.00 | 41 | 1016.2 |
| 20260830073254 | 83 | 7 | 0.0 | 3.0 | 0.00 | 0.00 | 0.00 | 42 | 1016.3 |
| 20260830071752 | 83 | 334 | 2.0 | 3.0 | 0.00 | 0.00 | 0.00 | 43 | 1016.1 |
| 20260830070301 | 82 | 1 | 2.0 | 3.0 | 0.00 | 0.00 | 0.00 | 43 | 1016.0 |
| 20260830064752 | 82 | 223 | 0.0 | 2.0 | 0.00 | 0.00 | 0.00 | 43 | 1015.9 |
| 20260830063254 | 81 | 254 | 1.0 | 4.0 | 0.00 | 0.00 | 0.00 | 43 | 1015.8 |
| 20260830061751 | 81 | 310 | 0.0 | 2.0 | 0.00 | 0.00 | 0.00 | 44 | 1015.6 |
| 20260830060253 | 81 | 257 | 0.0 | 2.0 | 0.00 | 0.00 | 0.00 | 45 | 1015.7 |
| 20260830054754 | 80 | 272 | 0.0 | 0.0 | 0.00 | 0.00 | 0.00 | 45 | 1015.8 |
| 20260830053253 | 78 | 0 | 0.0 | 0.0 | 0.00 | 0.00 | 0.00 | 47 | 1015.7 |
| 20260830050252 | 77 | 0 | 0.0 | 0.0 | 0.00 | 0.00 | 0.00 | 48 | 1015.6 |
| 20260830044753 | 77 | 0 | 0.0 | 0.0 | 0.00 | 0.00 | 0.00 | 48 | 1015.6 |
| 20260830043256 | 76 | 0 | 0.0 | 0.0 | 0.00 | 0.00 | 0.00 | 48 | 1015.5 |
| 20260830041746 | 76 | 213 | 0.0 | 0.0 | 0.00 | 0.00 | 0.00 | 49 | 1015.4 |
| 20260830040246 | 76 | 117 | 0.0 | 0.0 | 0.00 | 0.00 | 0.00 | 48 | 1015.5 |
| 20260830034751 | 76 | 109 | 0.0 | 0.0 | 0.00 | 0.00 | 0.00 | 48 | 1015.3 |
| 20260830033246 | 76 | 4 | 0.0 | 0.0 | 0.00 | 0.00 | 0.00 | 48 | 1015.3 |